Home   Weather   Andernach   Past weeks

Flag for Germany Past Weather in Andernach, Rhineland-Palatinate, Germany — Yesterday and Last 2 Weeks

Now
34 °F

Passing clouds.


Feels Like: 31 °F
Forecast: 23 / 36 °F
Wind: 3 mph from Southwest

Location: Buechel

Current Time: Dec 5, 2016 at 5:45:25 pm

Latest Report: Dec 5, 2016 at 4:20 pm


Visibility: N/A

Pressure: 30.27 "Hg

Humidity: 75%

Dew Point: 27 °F

Location of AndernachLocation

Past Weather in Andernach — Graph

°F

Andernach Temperature Yesterday

Maximum temperature yesterday: 32 °F (at 1:20 pm)
Minimum temperature yesterday: 25 °F (at 3:20 am)
Average temperature yesterday: 28 °F

High & Low Weather Summary for the Past Weeks

 TemperatureHumidityPressure
High57 °F (Nov 23, 2:20 pm)100% (Nov 21, 8:56 pm)30.48 "Hg (Nov 21, 8:56 pm)
Low21 °F (Nov 29, 8:20 am)56% (Nov 30, 12:20 pm)29.53 "Hg (Nov 20, 4:20 pm)
Average37 °F85%30.12 "Hg
* Reported Nov 20 4:20 pm — Dec 5 4:20 pm, Andernach, Weather by CustomWeather, © 2016

Note: Actual official high and low records may vary slightly from our data, if they occured in-between our weather recording intervals... More about our weather records

Advertising

Andernach Weather History for the Previous 24 Hours

Scroll right to see more
 ConditionsComfort  
Time TempWeatherWind HumidityBarometerVisibility
4:20 pm
Mon, Dec 5
34 °FPassing clouds.3 mph75%30.27 "HgN/A
3:20 pm37 °FPassing clouds.1 mph70%30.27 "HgN/A
2:20 pm39 °FPassing clouds.2 mph65%30.27 "HgN/A
1:20 pm37 °FPassing clouds.2 mph65%30.27 "HgN/A
12:20 pm34 °FPassing clouds.2 mph75%30.27 "HgN/A
11:20 am30 °FPassing clouds.2 mph80%30.27 "HgN/A
10:20 am28 °FPassing clouds.3 mph86%30.27 "HgN/A
9:20 am25 °FPassing clouds.3 mph86%30.27 "HgN/A
8:20 am23 °FCold.3 mph93%30.27 "HgN/A
7:20 am21 °FCold.6 mph93%30.27 "HgN/A
6:20 am23 °FCold.7 mph93%30.27 "HgN/A
5:20 am23 °FCold.5 mph86%30.24 "HgN/A
4:20 am23 °FCold.3 mph86%30.27 "Hg6 mi
3:20 am23 °FCold.6 mph86%30.27 "Hg6 mi
2:20 am25 °FCold.6 mph80%30.27 "Hg6 mi
1:20 am25 °FCold.6 mph86%30.27 "Hg6 mi
12:20 am25 °FCold.5 mph86%30.27 "Hg6 mi
11:20 pm
Sun, Dec 4
27 °FChilly.8 mph80%30.27 "Hg6 mi
10:20 pm27 °FChilly.6 mph80%30.27 "Hg6 mi
9:20 pm27 °FChilly.6 mph80%30.27 "Hg6 mi
8:20 pm27 °FChilly.7 mph80%30.27 "Hg6 mi
7:20 pm28 °FChilly.8 mph74%30.27 "HgN/A
6:20 pm28 °FChilly.10 mph74%30.27 "HgN/A
5:20 pm30 °FChilly.10 mph75%30.27 "HgN/A
Weather by CustomWeather, © 2016

See weather overviewHow to use our weather pages